Вернуться в каталог

CZ-6A DEB

АктивенPO
NORAD 64660·DEBRIS·🇨🇳 China

Запущен Aug 6, 2024 с Taiyuan Satellite Launch Center

Loading…

Ближайшие Пролёты (ближайшие 24 часа)

TLE

СвежийSource: Space-Track

Эпоха: Sep 14, 2026, 07:00 UTC

1 64660U 24140AFA 26257.29235293  .00001975  00000-0  71395-3 0  9990
2 64660  88.3378 202.2139 0039181 141.3932 219.0078 14.32720169 98835

Отслеживайте CZ-6A DEB в реальном времени с AllMySat

Download on the App Store